Location: Recife
(8.0585°S, 34.8848°W)
Time: 20:12:56
(UTC-03:00)

S-56A Canister/Altair - Pass Details

Date: 22 April 2026
Orbit: 633 x 2484 km, 38.9° (Epoch: 16 May)

Event Time Altitude Azimuth Distance (km) Brightness Sun altitude
Rises 23:50:08 0° 265° (W) 3,087 - -80.9°
Reaches altitude 10° 23:53:10 10° 288° (WNW) 2,333 - -80.3°
Maximum altitude 23:56:30 16° 326° (NNW) 2,138 - -79.5°
Drops below altitude 10° 00:00:30 10° 4° (N) 2,879 - -78.6°
Sets 00:04:57 0° 23° (NNE) 4,223 - -77.6°
